• In Russia
  • List of Countries
  • For 7 days
  • Water Temperature
  • Satellite Maps
  • Weather Map
  • Weather Widgets
  • user-avatar
    Login

    Hourly Weather Perth

    Today, 5 December, Monday

    Time Temperature Precipitation Wind Pressure Humidity
    00:00 +13°C° 0 mm 4 mps 759 mmHg 78%
    01:00 +12°C° 0 mm 4 mps 759 mmHg 78%
    02:00 +12°C° 0 mm 4 mps 758 mmHg 80%
    03:00 +12°C° 0 mm 4 mps 759 mmHg 81%
    04:00 +11°C° 0 mm 4 mps 759 mmHg 83%
    05:00 +11°C° 0 mm 4 mps 759 mmHg 85%
    06:00 +13°C° 0 mm 4 mps 759 mmHg 74%
    07:00 +15°C° 0 mm 4 mps 759 mmHg 64%
    08:00 +19°C° 0 mm 4 mps 760 mmHg 55%
    09:00 +21°C° 0 mm 4 mps 759 mmHg 48%
    10:00 +23°C° 0 mm 4 mps 759 mmHg 40%
    11:00 +26°C° 0 mm 4 mps 759 mmHg 33%
    12:00 +27°C° 0 mm 5 mps 758 mmHg 31%
    13:00 +27°C° 0 mm 5 mps 758 mmHg 30%
    14:00 +26°C° 0 mm 6 mps 758 mmHg 33%
    15:00 +26°C° 0 mm 6 mps 758 mmHg 35%
    16:00 +24°C° 0 mm 6 mps 758 mmHg 37%
    17:00 +24°C° 0 mm 6 mps 758 mmHg 40%
    18:00 +22°C° 0 mm 5 mps 759 mmHg 51%
    19:00 +19°C° 0 mm 5 mps 759 mmHg 62%
    20:00 +16°C° 0 mm 5 mps 760 mmHg 74%
    21:00 +15°C° 0 mm 4 mps 760 mmHg 80%
    22:00 +15°C° 0 mm 4 mps 760 mmHg 86%
    23:00 +14°C° 0 mm 3 mps 760 mmHg 92%

    Tomorrow, 6 December, Tuesday

    Time Temperature Precipitation Wind Pressure Humidity
    00:00 +13°C° 0 mm 3 mps 760 mmHg 93%
    01:00 +13°C° 0 mm 3 mps 760 mmHg 94%
    02:00 +12°C° 0 mm 3 mps 760 mmHg 95%
    03:00 +12°C° 0 mm 3 mps 760 mmHg 94%
    04:00 +13°C° 0 mm 2 mps 760 mmHg 94%
    05:00 +12°C° 0 mm 2 mps 761 mmHg 94%
    06:00 +16°C° 0 mm 2 mps 761 mmHg 80%
    07:00 +19°C° 0 mm 2 mps 761 mmHg 66%
    08:00 +23°C° 0 mm 2 mps 761 mmHg 51%
    09:00 +25°C° 0 mm 2 mps 760 mmHg 44%
    10:00 +27°C° 0 mm 3 mps 760 mmHg 36%
    11:00 +30°C° 0 mm 3 mps 760 mmHg 29%
    12:00 +30°C° 0 mm 4 mps 759 mmHg 29%
    13:00 +30°C° 0 mm 5 mps 759 mmHg 30%
    14:00 +30°C° 0 mm 5 mps 758 mmHg 31%
    15:00 +28°C° 0 mm 5 mps 758 mmHg 35%
    16:00 +27°C° 0 mm 5 mps 758 mmHg 40%
    17:00 +25°C° 0 mm 5 mps 757 mmHg 44%
    18:00 +22°C° 0 mm 5 mps 758 mmHg 55%
    19:00 +19°C° 0 mm 4 mps 758 mmHg 67%
    20:00 +17°C° 0 mm 4 mps 759 mmHg 78%
    21:00 +15°C° 0 mm 4 mps 759 mmHg 83%
    22:00 +16°C° 0 mm 3 mps 759 mmHg 89%
    23:00 +14°C° 0 mm 3 mps 759 mmHg 94%

    Day after tomorrow, 7 December, Wednesday

    Time Temperature Precipitation Wind Pressure Humidity
    00:00 +13°C° 0 mm 3 mps 759 mmHg 95%
    01:00 +13°C° 0 mm 3 mps 759 mmHg 96%
    02:00 +13°C° 0 mm 3 mps 759 mmHg 97%
    03:00 +13°C° 0 mm 3 mps 759 mmHg 97%
    04:00 +13°C° 0 mm 3 mps 759 mmHg 97%
    05:00 +13°C° 0 mm 3 mps 759 mmHg 97%
    06:00 +15°C° 0 mm 4 mps 759 mmHg 87%
    07:00 +18°C° 0 mm 4 mps 760 mmHg 77%
    08:00 +20°C° 0 mm 5 mps 760 mmHg 68%
    09:00 +22°C° 0 mm 5 mps 760 mmHg 60%
    10:00 +23°C° 0 mm 5 mps 760 mmHg 51%
    11:00 +26°C° 0 mm 5 mps 760 mmHg 43%
    12:00 +27°C° 0 mm 5 mps 760 mmHg 39%
    13:00 +28°C° 0 mm 5 mps 759 mmHg 34%
    14:00 +29°C° 0 mm 6 mps 759 mmHg 30%
    15:00 +28°C° 0 mm 6 mps 759 mmHg 30%
    16:00 +28°C° 0 mm 6 mps 759 mmHg 31%
    17:00 +27°C° 0 mm 6 mps 759 mmHg 32%
    18:00 +25°C° 0 mm 5 mps 759 mmHg 38%
    19:00 +22°C° 0 mm 5 mps 760 mmHg 43%
    20:00 +19°C° 0 mm 5 mps 760 mmHg 49%
    21:00 +19°C° 0 mm 5 mps 761 mmHg 48%
    22:00 +17°C° 0 mm 5 mps 761 mmHg 48%
    23:00 +17°C° 0 mm 5 mps 762 mmHg 47%

    8 December, Thursday

    Time Temperature Precipitation Wind Pressure Humidity
    00:00 +16°C° 0 mm 5 mps 762 mmHg 48%
    01:00 +16°C° 0 mm 5 mps 762 mmHg 50%
    02:00 +15°C° 0 mm 6 mps 762 mmHg 51%
    03:00 +14°C° 0 mm 6 mps 762 mmHg 56%
    04:00 +14°C° 0 mm 6 mps 762 mmHg 61%
    05:00 +13°C° 0 mm 6 mps 762 mmHg 66%
    06:00 +15°C° 0 mm 5 mps 762 mmHg 59%
    07:00 +16°C° 0 mm 5 mps 763 mmHg 52%
    08:00 +19°C° 0 mm 5 mps 763 mmHg 45%
    09:00 +22°C° 0 mm 4 mps 763 mmHg 37%
    10:00 +26°C° 0 mm 4 mps 762 mmHg 29%
    11:00 +29°C° 0 mm 3 mps 762 mmHg 22%
    12:00 +31°C° 0 mm 3 mps 761 mmHg 18%
    13:00 +34°C° 0 mm 3 mps 760 mmHg 15%
    14:00 +36°C° 0 mm 3 mps 759 mmHg 11%
    15:00 +35°C° 0 mm 4 mps 759 mmHg 12%
    16:00 +35°C° 0 mm 4 mps 759 mmHg 13%
    17:00 +34°C° 0 mm 4 mps 758 mmHg 15%
    18:00 +29°C° 0 mm 4 mps 759 mmHg 25%
    19:00 +23°C° 0 mm 4 mps 759 mmHg 36%
    20:00 +19°C° 0 mm 3 mps 759 mmHg 46%
    21:00 +19°C° 0 mm 3 mps 759 mmHg 41%
    22:00 +19°C° 0 mm 3 mps 760 mmHg 36%
    23:00 +19°C° 0 mm 3 mps 760 mmHg 31%

    9 December, Friday

    Time Temperature Precipitation Wind Pressure Humidity
    00:00 +20°C° 0 mm 3 mps 759 mmHg 28%
    01:00 +20°C° 0 mm 3 mps 759 mmHg 26%
    02:00 +20°C° 0 mm 3 mps 759 mmHg 24%
    03:00 +20°C° 0 mm 3 mps 759 mmHg 25%
    04:00 +19°C° 0 mm 3 mps 759 mmHg 26%
    05:00 +19°C° 0 mm 3 mps 759 mmHg 27%
    06:00 +22°C° 0 mm 3 mps 759 mmHg 23%
    07:00 +25°C° 0 mm 3 mps 759 mmHg 20%
    08:00 +28°C° 0 mm 3 mps 760 mmHg 16%
    09:00 +31°C° 0 mm 3 mps 759 mmHg 14%
    10:00 +36°C° 0 mm 2 mps 759 mmHg 12%
    11:00 +39°C° 0 mm 2 mps 759 mmHg 10%
    12:00 +40°C° 0 mm 3 mps 758 mmHg 9%
    13:00 +42°C° 0 mm 3 mps 758 mmHg 9%
    14:00 +43°C° 0 mm 3 mps 757 mmHg 8%
    15:00 +42°C° 0 mm 4 mps 757 mmHg 10%
    16:00 +40°C° 0 mm 4 mps 756 mmHg 11%
    17:00 +38°C° 0 mm 4 mps 756 mmHg 12%
    18:00 +34°C° 0 mm 4 mps 757 mmHg 18%
    19:00 +29°C° 0 mm 4 mps 757 mmHg 24%
    20:00 +26°C° 0 mm 3 mps 758 mmHg 30%
    21:00 +26°C° 0 mm 3 mps 758 mmHg 29%
    22:00 +26°C° 0 mm 3 mps 758 mmHg 29%
    23:00 +26°C° 0 mm 3 mps 758 mmHg 29%

    10 December, Saturday

    Time Temperature Precipitation Wind Pressure Humidity
    00:00 +25°C° 0 mm 3 mps 757 mmHg 29%
    01:00 +24°C° 0 mm 3 mps 757 mmHg 29%
    02:00 +24°C° 0 mm 2 mps 757 mmHg 29%
    03:00 +24°C° 0 mm 2 mps 757 mmHg 25%
    04:00 +25°C° 0 mm 2 mps 757 mmHg 22%
    05:00 +25°C° 0 mm 2 mps 757 mmHg 19%
    06:00 +28°C° 0 mm 3 mps 758 mmHg 17%
    07:00 +31°C° 0 mm 3 mps 758 mmHg 15%
    08:00 +35°C° 0 mm 3 mps 758 mmHg 13%
    09:00 +37°C° 0 mm 3 mps 758 mmHg 12%
    10:00 +39°C° 0 mm 3 mps 757 mmHg 12%
    11:00 +43°C° 0 mm 3 mps 757 mmHg 11%
    12:00 +42°C° 0 mm 3 mps 756 mmHg 12%
    13:00 +42°C° 0 mm 4 mps 756 mmHg 13%
    14:00 +41°C° 0 mm 4 mps 755 mmHg 14%
    15:00 +40°C° 0 mm 4 mps 755 mmHg 15%
    16:00 +40°C° 0 mm 4 mps 755 mmHg 16%
    17:00 +38°C° 0 mm 4 mps 755 mmHg 17%
    18:00 +34°C° 0 mm 3 mps 756 mmHg 28%
    19:00 +28°C° 0 mm 3 mps 756 mmHg 38%
    20:00 +24°C° 0 mm 2 mps 757 mmHg 48%
    21:00 +24°C° 0 mm 2 mps 757 mmHg 47%
    22:00 +24°C° 0 mm 2 mps 757 mmHg 45%
    23:00 +25°C° 0 mm 2 mps 757 mmHg 44%
    Show more